カタログに戻る

STARLINK-33766

運用中通信VLEO
NORAD 63472·PAYLOAD·🇺🇸 United States

打ち上げ Apr 6, 2025 から Cape Canaveral Space Force Station

Loading…

次のパス (今後24時間)

TLE

最新Source: CelesTrak SupGP

元期: Sep 14, 2026, 15:06 UTC

1 63472C 25070N   26257.62965278  .00003547  00000+0  12849-3 0  2575
2 63472  43.0001 273.1195 0001452 275.1476 252.5406 15.27570320    11

AllMySatでSTARLINK-33766をリアルタイム追跡

Download on the App Store